• In Hungary
  • List of Countries
  • For 7 days
  • Water Temperature
  • Satellite Maps
  • Weather Map
  • News
  • Weather Widgets
  • user-avatar
    Login

    Hourly Weather San Ġwann

    Today, 22 February, Thursday

    Time Temperature Precipitation Wind Pressure Humidity
    00:00 +13°C° 0 mm 4 mps 751 mmHg 62%
    01:00 +13°C° 0 mm 3 mps 750 mmHg 61%
    02:00 +13°C° 0 mm 4 mps 750 mmHg 62%
    03:00 +13°C° 0 mm 4 mps 750 mmHg 64%
    04:00 +13°C° 0 mm 5 mps 750 mmHg 65%
    05:00 +14°C° 0.1 mm 5 mps 750 mmHg 67%
    06:00 +14°C° 0.1 mm 6 mps 749 mmHg 68%
    07:00 +14°C° 0.1 mm 7 mps 749 mmHg 70%
    08:00 +13°C° 0.4 mm 8 mps 749 mmHg 71%
    09:00 +13°C° 0.4 mm 8 mps 749 mmHg 72%
    10:00 +15°C° 0.4 mm 9 mps 749 mmHg 73%
    11:00 +15°C° 0.4 mm 9 mps 749 mmHg 73%
    12:00 +15°C° 0.4 mm 9 mps 749 mmHg 73%
    13:00 +15°C° 0.4 mm 9 mps 749 mmHg 72%
    14:00 +15°C° 0.2 mm 8 mps 749 mmHg 73%
    15:00 +16°C° 0.2 mm 8 mps 748 mmHg 74%
    16:00 +16°C° 0.2 mm 7 mps 748 mmHg 75%
    17:00 +16°C° 0.1 mm 6 mps 748 mmHg 76%
    18:00 +16°C° 0.1 mm 6 mps 748 mmHg 77%
    19:00 +16°C° 0.1 mm 6 mps 748 mmHg 78%
    20:00 +16°C° 0.1 mm 5 mps 749 mmHg 78%
    21:00 +15°C° 0.1 mm 4 mps 749 mmHg 78%
    22:00 +15°C° 0.1 mm 4 mps 749 mmHg 77%
    23:00 +15°C° 0.1 mm 4 mps 748 mmHg 78%

    Tomorrow, 23 February, Friday

    Time Temperature Precipitation Wind Pressure Humidity
    00:00 +15°C° 0.1 mm 5 mps 748 mmHg 79%
    01:00 +15°C° 0.1 mm 6 mps 748 mmHg 79%
    02:00 +15°C° 0.5 mm 7 mps 747 mmHg 79%
    03:00 +15°C° 0.5 mm 8 mps 747 mmHg 80%
    04:00 +15°C° 0.5 mm 9 mps 746 mmHg 80%
    05:00 +15°C° 1 mm 7 mps 746 mmHg 82%
    06:00 +15°C° 1 mm 6 mps 746 mmHg 83%
    07:00 +14°C° 1 mm 5 mps 746 mmHg 85%
    08:00 +14°C° 0.7 mm 5 mps 746 mmHg 84%
    09:00 +14°C° 0.7 mm 5 mps 746 mmHg 83%
    10:00 +14°C° 0.7 mm 5 mps 746 mmHg 82%
    11:00 +12°C° 1 mm 7 mps 747 mmHg 82%
    12:00 +12°C° 1 mm 8 mps 747 mmHg 82%
    13:00 +11°C° 1 mm 10 mps 747 mmHg 82%
    14:00 +11°C° 0.8 mm 11 mps 747 mmHg 79%
    15:00 +10°C° 0.8 mm 12 mps 748 mmHg 76%
    16:00 +10°C° 0.8 mm 13 mps 748 mmHg 73%
    17:00 +10°C° 0.3 mm 13 mps 749 mmHg 71%
    18:00 +12°C° 0.3 mm 12 mps 749 mmHg 70%
    19:00 +12°C° 0.3 mm 12 mps 750 mmHg 68%
    20:00 +12°C° 0.1 mm 12 mps 751 mmHg 68%
    21:00 +12°C° 0.1 mm 12 mps 751 mmHg 68%
    22:00 +12°C° 0.1 mm 12 mps 752 mmHg 67%
    23:00 +12°C° 0.1 mm 12 mps 752 mmHg 68%

    Day after tomorrow, 24 February, Saturday

    Time Temperature Precipitation Wind Pressure Humidity
    00:00 +12°C° 0.1 mm 12 mps 753 mmHg 68%
    01:00 +12°C° 0.1 mm 12 mps 753 mmHg 68%
    02:00 +12°C° 0.1 mm 11 mps 753 mmHg 68%
    03:00 +12°C° 0.1 mm 11 mps 753 mmHg 67%
    04:00 +12°C° 0.1 mm 10 mps 753 mmHg 67%
    05:00 +12°C° 0 mm 9 mps 754 mmHg 66%
    06:00 +12°C° 0 mm 9 mps 754 mmHg 66%
    07:00 +12°C° 0 mm 8 mps 755 mmHg 65%
    08:00 +12°C° 0 mm 7 mps 755 mmHg 65%
    09:00 +12°C° 0 mm 7 mps 756 mmHg 64%
    10:00 +14°C° 0 mm 7 mps 756 mmHg 64%
    11:00 +14°C° 0 mm 6 mps 756 mmHg 62%
    12:00 +14°C° 0 mm 5 mps 756 mmHg 61%
    13:00 +14°C° 0 mm 5 mps 756 mmHg 60%
    14:00 +14°C° 0 mm 5 mps 756 mmHg 59%
    15:00 +14°C° 0 mm 4 mps 755 mmHg 58%
    16:00 +14°C° 0 mm 4 mps 755 mmHg 58%
    17:00 +14°C° 0 mm 4 mps 755 mmHg 59%
    18:00 +14°C° 0 mm 4 mps 756 mmHg 60%
    19:00 +15°C° 0 mm 4 mps 756 mmHg 61%
    20:00 +15°C° 0 mm 4 mps 756 mmHg 62%
    21:00 +15°C° 0 mm 4 mps 756 mmHg 64%
    22:00 +16°C° 0 mm 3 mps 756 mmHg 65%
    23:00 +15°C° 0 mm 4 mps 756 mmHg 66%

    25 February, Sunday

    Time Temperature Precipitation Wind Pressure Humidity
    00:00 +15°C° 0 mm 4 mps 755 mmHg 67%
    01:00 +15°C° 0 mm 5 mps 755 mmHg 68%
    02:00 +15°C° 0 mm 5 mps 754 mmHg 69%
    03:00 +15°C° 0 mm 6 mps 753 mmHg 70%
    04:00 +15°C° 0 mm 6 mps 753 mmHg 71%
    05:00 +15°C° 0 mm 7 mps 753 mmHg 72%
    06:00 +15°C° 0 mm 7 mps 753 mmHg 73%
    07:00 +15°C° 0 mm 8 mps 752 mmHg 74%
    08:00 +15°C° 0 mm 8 mps 752 mmHg 75%
    09:00 +15°C° 0 mm 8 mps 752 mmHg 75%
    10:00 +15°C° 0 mm 8 mps 752 mmHg 76%
    11:00 +16°C° 0 mm 8 mps 751 mmHg 77%
    12:00 +16°C° 0 mm 7 mps 751 mmHg 78%
    13:00 +16°C° 0 mm 7 mps 750 mmHg 79%
    14:00 +16°C° 0 mm 6 mps 749 mmHg 80%
    15:00 +16°C° 0 mm 6 mps 749 mmHg 81%
    16:00 +16°C° 0 mm 5 mps 748 mmHg 81%
    17:00 +16°C° 0 mm 7 mps 748 mmHg 82%
    18:00 +15°C° 0 mm 8 mps 748 mmHg 82%
    19:00 +15°C° 0 mm 9 mps 748 mmHg 83%
    20:00 +14°C° 0 mm 11 mps 749 mmHg 80%
    21:00 +13°C° 0 mm 13 mps 749 mmHg 77%
    22:00 +13°C° 0 mm 15 mps 749 mmHg 74%
    23:00 +13°C° 0 mm 16 mps 749 mmHg 72%

    26 February, Monday

    Time Temperature Precipitation Wind Pressure Humidity
    00:00 +11°C° 0 mm 16 mps 749 mmHg 71%
    01:00 +11°C° 0 mm 17 mps 749 mmHg 69%
    02:00 +11°C° 0 mm 17 mps 750 mmHg 68%
    03:00 +11°C° 0 mm 16 mps 750 mmHg 68%
    04:00 +11°C° 0 mm 16 mps 750 mmHg 67%
    05:00 +13°C° 0 mm 15 mps 750 mmHg 67%
    06:00 +13°C° 0 mm 15 mps 750 mmHg 68%
    07:00 +13°C° 0 mm 14 mps 751 mmHg 68%
    08:00 +13°C° 0.1 mm 14 mps 751 mmHg 69%
    09:00 +13°C° 0.1 mm 13 mps 751 mmHg 69%
    10:00 +13°C° 0.1 mm 13 mps 752 mmHg 70%
    11:00 +13°C° 0 mm 13 mps 752 mmHg 69%
    12:00 +13°C° 0 mm 13 mps 752 mmHg 69%
    13:00 +13°C° 0 mm 14 mps 752 mmHg 68%
    14:00 +13°C° 0 mm 13 mps 752 mmHg 68%
    15:00 +13°C° 0 mm 13 mps 752 mmHg 68%
    16:00 +13°C° 0 mm 13 mps 752 mmHg 68%
    17:00 +13°C° 0.1 mm 12 mps 753 mmHg 69%
    18:00 +13°C° 0.1 mm 12 mps 753 mmHg 69%
    19:00 +14°C° 0.1 mm 11 mps 753 mmHg 70%
    20:00 +14°C° 0 mm 11 mps 753 mmHg 69%
    21:00 +14°C° 0 mm 10 mps 753 mmHg 68%
    22:00 +15°C° 0 mm 9 mps 753 mmHg 68%
    23:00 +15°C° 0 mm 9 mps 753 mmHg 68%

    27 February, Tuesday

    Time Temperature Precipitation Wind Pressure Humidity
    00:00 +15°C° 0 mm 8 mps 753 mmHg 68%
    01:00 +15°C° 0 mm 7 mps 752 mmHg 68%
    02:00 +15°C° 0 mm 7 mps 752 mmHg 69%
    03:00 +15°C° 0 mm 6 mps 751 mmHg 69%
    04:00 +15°C° 0 mm 6 mps 751 mmHg 70%
    05:00 +15°C° 0 mm 5 mps 751 mmHg 70%
    06:00 +15°C° 0 mm 5 mps 751 mmHg 71%
    07:00 +15°C° 0 mm 4 mps 751 mmHg 71%
    08:00 +14°C° 0.3 mm 4 mps 751 mmHg 72%
    09:00 +14°C° 0.3 mm 5 mps 751 mmHg 72%
    10:00 +14°C° 0.3 mm 5 mps 751 mmHg 73%
    11:00 +14°C° 0.4 mm 5 mps 751 mmHg 73%
    12:00 +14°C° 0.4 mm 5 mps 751 mmHg 74%
    13:00 +14°C° 0.4 mm 5 mps 751 mmHg 74%
    14:00 +14°C° 0 mm 5 mps 750 mmHg 73%
    15:00 +14°C° 0 mm 4 mps 750 mmHg 72%
    16:00 +14°C° 0 mm 4 mps 750 mmHg 71%
    17:00 +14°C° 0 mm 4 mps 751 mmHg 71%
    18:00 +14°C° 0 mm 4 mps 751 mmHg 70%
    19:00 +14°C° 0 mm 5 mps 751 mmHg 70%
    20:00 +13°C° 0 mm 5 mps 752 mmHg 69%
    21:00 +13°C° 0 mm 5 mps 752 mmHg 69%
    22:00 +13°C° 0 mm 5 mps 752 mmHg 69%
    23:00 +13°C° 0.1 mm 5 mps 752 mmHg 69%
    Show more